[[{"header":{"parameterUnit":"m.s-1","parameterCategory":1,"la1":30.2992,"la2":30.254,"lo1":-89.0895,"lo2":-89.0443,"dy":0.0025,"dx":0.0025,"nx":19,"ny":19,"refTime":"2026-04-07T03:00:00:Z","depth":0,"parameterNumber":2,"parameterNumberName":"U-component_of_WINDS"},"data":[0,0,0,-5.277,-5.2772,-5.2881,-5.2881,-5.3051,-5.3052,0,0,0,0,0,0,0,0,0,0,0,-5.2755,-5.2757,-5.277,-5.2773,-5.2881,-5.2881,-5.305,-5.3052,0,0,0,0,0,0,0,0,0,0,0,-5.2755,-5.2757,-5.2759,-5.2773,-5.2881,-5.2881,-5.305,-5.2957,0,0,0,0,0,0,0,0,0,0,-5.2847,-5.2851,-5.2756,-5.2759,-5.2774,-5.2881,-5.2881,-5.2952,-5.2963,-5.3015,0,-5.3064,0,-5.3061,-5.3066,-5.3066,0,0,0,-5.276,-5.2842,-5.2855,-5.2759,-5.2775,-5.2881,-5.2828,-5.2958,-5.297,-5.3029,-5.3066,-5.3072,-5.3064,-5.3067,-5.3068,-5.3407,-5.3409,0,0,-5.2754,-5.2785,-5.2847,-5.2864,-5.2848,-5.2825,-5.2832,-5.2965,-5.3008,-5.3067,-5.3075,-5.3067,-5.3068,-5.307,-5.3405,-5.3407,0,0,0,-5.2745,-5.2781,-5.279,-5.2858,-5.2875,-5.2828,-5.2836,-5.3002,-5.3002,-5.3077,-5.3069,-5.3069,-5.3072,-5.3402,-5.3406,-5.3547,0,0,0,-5.2741,-5.2776,-5.2788,-5.2808,-5.2873,-5.294,-5.2871,-5.2993,-5.3007,-5.3068,-5.3069,-5.3074,-5.34,-5.3404,-5.3537,-5.3609,0,0,0,-5.2742,-5.2776,-5.2798,-5.281,-5.2857,-5.2937,-5.2944,-5.2995,-5.3003,-5.3066,-5.3074,-5.3398,-5.3403,-5.3529,-5.3595,-5.371,0,0,0,-5.2753,-5.292,-5.28,-5.2984,-5.2857,-5.3022,-5.2943,-5.3064,-5.3135,-5.307,-5.34,-5.3405,-5.3527,-5.3587,-5.3702,-5.3815,-5.3864,0,0,-5.2981,-5.2949,-5.3054,-5.295,-5.3145,-5.3003,-5.3218,-5.3253,-5.3231,-5.335,-5.3358,-5.354,-5.3594,-5.3708,-5.4121,-5.416,0,0,0,-5.3137,-5.3214,-5.3259,-5.3328,-5.3358,-5.3392,-5.339,-5.3404,-5.3503,-5.3298,-5.3609,-5.3641,-5.3706,-5.3759,-5.3793,-5.3849,-5.343,-5.3429,-5.3429,-5.3507,-5.3469,-5.3642,-5.3618,-5.3686,-5.3684,-5.3736,-5.3754,-5.3695,-5.3769,-5.3806,-5.4061,-5.4124,-5.4148,-5.4207,-5.3859,-5.3859,-5.386,-5.386,-5.3842,-5.3946,-5.3864,-5.4003,-5.3963,-5.4079,-5.4083,-5.4038,-5.4142,-5.4029,-5.4085,-5.397,-5.4193,-5.4242,-5.387,-5.3869,-5.3867,-5.3866,-5.3866,-5.4084,-5.4127,-5.414,-5.4237,-5.4316,-5.4284,-5.4389,-5.4346,-5.4308,-5.4363,-5.4399,-5.4397,-5.4392,-5.4382,-5.4383,-5.4384,-5.4384,-5.4385,-5.4386,-5.4331,-5.4341,-5.4434,-5.4481,-5.452,-5.4567,-5.4566,-5.4605,-5.4637,-5.4598,-5.4598,-5.4535,-5.422,-5.4144,-5.4399,-5.4397,-5.4395,-5.4394,-5.4393,-5.4692,-5.4604,-5.4747,-5.4787,-5.484,-5.4923,-5.4867,-5.4949,-5.4974,-5.5028,-5.4951,-5.4724,-5.4688,-5.4661,-5.4599,-5.4956,-5.4956,-5.4956,-5.4956,-5.49,-5.4876,-5.5015,-5.5082,-5.5142,-5.5106,-5.5273,-5.5274,-5.5261,-5.5275,-5.5216,-5.5128,-5.5102,-5.5082,-5.5046,-5.4987,-5.5436,-5.5436,-5.5436,-5.5121,-5.5102,-5.5252,-5.5237,-5.5275,-5.531,-5.5465,-5.5547,-5.5514,-5.5455,-5.5286,-5.5266,-5.5123,-5.5077,-5.5019,-5.4964,-5.4855,0,0]},{"header":{"parameterUnit":"m.s-1","parameterCategory":1,"la1":30.2992,"la2":30.254,"lo1":-89.0895,"lo2":-89.0443,"dy":0.0025,"dx":0.0025,"nx":19,"ny":19,"refTime":"2026-04-07T03:00:00:Z","depth":0,"parameterNumber":3,"parameterNumberName":"V-component_of_WINDS"},"data":[0,0,0,-3.4684,-3.4685,-3.4722,-3.4722,-3.4782,-3.4782,0,0,0,0,0,0,0,0,0,0,0,-3.4681,-3.4681,-3.4684,-3.4685,-3.4722,-3.4722,-3.4782,-3.4782,0,0,0,0,0,0,0,0,0,0,0,-3.468,-3.4681,-3.4682,-3.4685,-3.4722,-3.4722,-3.4781,-3.4749,0,0,0,0,0,0,0,0,0,0,-3.471,-3.4716,-3.4681,-3.4682,-3.4685,-3.4722,-3.4723,-3.4747,-3.4751,-3.477,0,-3.479,0,-3.4787,-3.4787,-3.4787,0,0,0,-3.4679,-3.4713,-3.4716,-3.4682,-3.4686,-3.4722,-3.4704,-3.4749,-3.4753,-3.4775,-3.4791,-3.4793,-3.4788,-3.4788,-3.4788,-3.4921,-3.4922,0,0,-3.4677,-3.4692,-3.4713,-3.4719,-3.4715,-3.4703,-3.4705,-3.4751,-3.4769,-3.4791,-3.4794,-3.4789,-3.4788,-3.4789,-3.492,-3.4921,0,0,0,-3.4675,-3.4691,-3.4692,-3.4717,-3.4723,-3.4704,-3.4707,-3.4767,-3.4766,-3.4794,-3.479,-3.4788,-3.4789,-3.4919,-3.4921,-3.4981,0,0,0,-3.4673,-3.4689,-3.4691,-3.4701,-3.4722,-3.4746,-3.4722,-3.4763,-3.4768,-3.479,-3.4789,-3.479,-3.4918,-3.492,-3.4977,-3.5007,0,0,0,-3.4676,-3.469,-3.4698,-3.4702,-3.4719,-3.4745,-3.4746,-3.4764,-3.4766,-3.4787,-3.479,-3.4917,-3.492,-3.4974,-3.5002,-3.5047,0,0,0,-3.4682,-3.4751,-3.4699,-3.4774,-3.4718,-3.4782,-3.4746,-3.4792,-3.4818,-3.4789,-3.4918,-3.492,-3.4973,-3.4998,-3.5043,-3.5088,-3.5108,0,0,-3.4777,-3.4763,-3.4806,-3.4761,-3.4838,-3.4775,-3.486,-3.4869,-3.4857,-3.49,-3.4903,-3.4979,-3.5001,-3.5046,-3.5214,-3.5231,0,0,0,-3.4841,-3.4872,-3.4889,-3.4915,-3.4924,-3.4934,-3.4928,-3.4931,-3.4967,-3.4883,-3.5006,-3.5019,-3.5045,-3.5066,-3.5079,-3.51,-3.4931,-3.493,-3.493,-3.4998,-3.4979,-3.5048,-3.5034,-3.5059,-3.5052,-3.5071,-3.5074,-3.5047,-3.5076,-3.5089,-3.5194,-3.5219,-3.5229,-3.5251,-3.5111,-3.5111,-3.5111,-3.5111,-3.5136,-3.5177,-3.5139,-3.5193,-3.5172,-3.5217,-3.5213,-3.5192,-3.523,-3.5182,-3.5204,-3.5155,-3.5247,-3.5265,-3.5116,-3.5115,-3.5114,-3.5114,-3.5114,-3.5237,-3.5253,-3.5256,-3.5291,-3.532,-3.5302,-3.534,-3.5319,-3.5299,-3.5321,-3.5332,-3.5331,-3.5327,-3.5328,-3.5328,-3.5328,-3.5329,-3.5329,-3.5329,-3.5341,-3.5342,-3.5378,-3.5392,-3.5406,-3.5421,-3.5414,-3.5426,-3.5434,-3.5416,-3.5416,-3.5386,-3.526,-3.5228,-3.5335,-3.5334,-3.5333,-3.5333,-3.5332,-3.5489,-3.5452,-3.5507,-3.552,-3.5535,-3.5565,-3.5537,-3.5564,-3.5571,-3.559,-3.5555,-3.5465,-3.5449,-3.5438,-3.5412,-3.5559,-3.5559,-3.5559,-3.5559,-3.5574,-3.5564,-3.5614,-3.5637,-3.5657,-3.5638,-3.5699,-3.5694,-3.5683,-3.5686,-3.5661,-3.5625,-3.5614,-3.5604,-3.5589,-3.5565,-3.5748,-3.5748,-3.5748,-3.5664,-3.5654,-3.5711,-3.57,-3.571,-3.5719,-3.5775,-3.5802,-3.5782,-3.5755,-3.5687,-3.5679,-3.562,-3.5602,-3.5575,-3.5553,-3.5508,0,0]}]]